RYR8BK EGPK-LEAL

Flight info

Callsign RYR8BK
Flight time N/A
Altitude 35000
Route SUDBY Z249 OSMEG T256 DCS DCT AKOMU DCT VAMEB UL612 HON DCT SITET UN859 SOPIL DCT BALAN DCT LMG/N0450F370 DCT PIMQO DCT AGN DCT ANETO DCT POSSY DCT XIMPE DCT RIMES N860 VLC
Aircraft B738/M-SDE2E3FGHIRWXY/LB1

Departure

Time 2026-05-09 18:27
Airport Glasgow Prestwick Airport (EGPK)

Arrival

Time N/A
Airport Alicante-Elche Miguel Hernández Airport (LEAL)
Time Latitude Longitude Altitude Speed Heading
2026-05-09 17:49 55.51099 -4.60947 45 ft 0 kts 121°
2026-05-09 18:15 55.51102 -4.60956 47 ft 4 kts 121°
2026-05-09 18:15 55.51116 -4.60997 47 ft 4 kts 121°
2026-05-09 18:15 55.51128 -4.61030 44 ft 4 kts 118°
2026-05-09 18:16 55.51132 -4.61071 45 ft 4 kts 71°
2026-05-09 18:16 55.51119 -4.61112 43 ft 4 kts 49°
2026-05-09 18:16 55.51112 -4.61126 44 ft 0 kts 46°
2026-05-09 18:21 55.51124 -4.61103 43 ft 10 kts 47°
2026-05-09 18:21 55.51170 -4.60999 47 ft 8 kts 55°
2026-05-09 18:21 55.51210 -4.60919 47 ft 10 kts 27°
2026-05-09 18:22 55.51263 -4.60979 47 ft 12 kts 302°
2026-05-09 18:22 55.51311 -4.61121 45 ft 16 kts 301°
2026-05-09 18:22 55.51377 -4.61316 43 ft 21 kts 301°
2026-05-09 18:22 55.51452 -4.61469 45 ft 15 kts 322°
2026-05-09 18:23 55.51515 -4.61524 45 ft 0 kts 343°
2026-05-09 18:25 55.51554 -4.61529 46 ft 12 kts 11°
2026-05-09 18:25 55.51615 -4.61412 46 ft 16 kts 83°
2026-05-09 18:26 55.51557 -4.61244 45 ft 0 kts 120°
2026-05-09 18:26 55.51553 -4.61232 45 ft 14 kts 120°
2026-05-09 18:26 55.51344 -4.60624 48 ft 100 kts 121°
2026-05-09 18:27 55.50851 -4.59173 62 ft 172 kts 120°
2026-05-09 18:27 55.50391 -4.57907 338 ft 194 kts 122°
2026-05-09 18:27 55.49337 -4.55112 1684 ft 200 kts 118°
2026-05-09 18:27 55.48677 -4.53112 2856 ft 182 kts 118°
2026-05-09 18:28 55.48053 -4.51261 3783 ft 173 kts 118°
2026-05-09 18:28 55.47441 -4.49486 4618 ft 162 kts 118°
2026-05-09 18:28 55.46851 -4.47796 5247 ft 160 kts 118°
2026-05-09 18:28 55.46284 -4.46181 5854 ft 152 kts 117°
2026-05-09 18:29 55.45652 -4.44668 6220 ft 163 kts 135°
2026-05-09 18:29 55.44700 -4.43250 6399 ft 191 kts 144°
2026-05-09 18:29 55.43521 -4.41927 6671 ft 213 kts 147°
2026-05-09 18:29 55.42252 -4.40563 7181 ft 213 kts 148°
2026-05-09 18:30 55.40976 -4.39187 7684 ft 215 kts 148°
2026-05-09 18:30 55.39705 -4.37811 8193 ft 216 kts 148°
2026-05-09 18:30 55.38414 -4.36411 8702 ft 218 kts 149°
2026-05-09 18:30 55.37117 -4.35003 9199 ft 220 kts 149°
2026-05-09 18:31 55.35785 -4.33558 9450 ft 238 kts 149°
2026-05-09 18:31 55.34293 -4.31940 9629 ft 263 kts 149°
2026-05-09 18:31 55.32689 -4.30190 10131 ft 272 kts 149°
2026-05-09 18:31 55.31085 -4.28434 10622 ft 284 kts 149°
2026-05-09 18:32 55.29344 -4.26530 10975 ft 296 kts 149°
2026-05-09 18:32 55.27600 -4.24637 11757 ft 295 kts 149°
2026-05-09 18:32 55.25861 -4.22759 12514 ft 294 kts 149°
2026-05-09 18:32 55.24109 -4.20871 13278 ft 294 kts 149°
2026-05-09 18:33 55.22382 -4.19002 13994 ft 294 kts 149°
2026-05-09 18:33 55.20624 -4.17100 14646 ft 294 kts 149°
2026-05-09 18:33 55.18894 -4.15206 15281 ft 293 kts 149°
2026-05-09 18:33 55.17187 -4.13322 15918 ft 293 kts 149°
2026-05-09 18:34 55.15460 -4.11400 16561 ft 294 kts 149°
2026-05-09 18:34 55.13727 -4.09456 17200 ft 294 kts 149°
2026-05-09 18:34 55.12005 -4.07506 17832 ft 294 kts 149°
2026-05-09 18:34 55.10307 -4.05563 18458 ft 294 kts 149°
2026-05-09 18:35 55.08596 -4.03590 19002 ft 295 kts 149°
2026-05-09 18:35 55.06877 -4.01588 19538 ft 295 kts 149°
2026-05-09 18:35 55.05196 -3.99607 20055 ft 295 kts 149°
2026-05-09 18:35 55.03495 -3.97579 20575 ft 295 kts 149°
2026-05-09 18:36 55.01819 -3.95561 21066 ft 294 kts 149°
2026-05-09 18:36 55.00126 -3.93499 21565 ft 294 kts 149°
2026-05-09 18:36 54.98450 -3.91434 22049 ft 294 kts 149°
2026-05-09 18:36 54.96801 -3.89379 22511 ft 295 kts 149°
2026-05-09 18:37 54.95189 -3.87056 22758 ft 309 kts 130°
2026-05-09 18:37 54.94176 -3.83627 22629 ft 337 kts 110°
2026-05-09 18:37 54.93372 -3.79699 22774 ft 350 kts 116°
2026-05-09 18:37 54.92265 -3.75883 22890 ft 362 kts 123°
2026-05-09 18:38 54.91072 -3.71888 23002 ft 378 kts 120°
2026-05-09 18:38 54.89808 -3.67838 23114 ft 390 kts 124°
2026-05-09 18:38 54.88265 -3.63833 23220 ft 402 kts 130°
2026-05-09 18:40 54.73848 -3.37149 24942 ft 446 kts 143°
2026-05-09 18:40 54.71433 -3.33871 25281 ft 442 kts 152°
2026-05-09 18:40 54.68757 -3.31296 25629 ft 437 kts 162°
2026-05-09 18:41 54.65978 -3.29226 26003 ft 437 kts 163°
2026-05-09 18:41 54.63174 -3.27184 26359 ft 439 kts 163°
2026-05-09 18:41 54.60338 -3.25119 26686 ft 441 kts 163°
2026-05-09 18:41 54.57505 -3.23038 27039 ft 443 kts 163°
2026-05-09 18:42 54.54674 -3.20942 27364 ft 446 kts 162°
2026-05-09 18:42 54.51807 -3.18809 27664 ft 448 kts 162°
2026-05-09 18:42 54.48933 -3.16665 27993 ft 450 kts 162°
2026-05-09 18:42 54.46074 -3.14532 28296 ft 452 kts 162°
2026-05-09 18:43 54.43164 -3.12364 28563 ft 454 kts 162°
2026-05-09 18:43 54.40299 -3.10231 28827 ft 456 kts 162°
2026-05-09 18:43 54.37357 -3.08046 29103 ft 458 kts 162°
2026-05-09 18:43 54.34453 -3.05895 29371 ft 460 kts 162°
2026-05-09 18:44 54.31500 -3.03710 29696 ft 460 kts 162°
2026-05-09 18:44 54.28577 -3.01549 30105 ft 459 kts 161°
2026-05-09 18:44 54.25649 -2.99388 30498 ft 457 kts 161°
2026-05-09 18:44 54.22711 -2.97223 30819 ft 456 kts 161°
2026-05-09 18:45 54.19817 -2.95095 31084 ft 457 kts 161°
2026-05-09 18:45 54.16890 -2.92948 31368 ft 456 kts 161°
2026-05-09 18:45 54.13961 -2.90809 31674 ft 456 kts 161°
2026-05-09 18:45 54.11068 -2.88706 31956 ft 455 kts 161°
2026-05-09 18:46 54.08157 -2.86594 32224 ft 455 kts 161°
2026-05-09 18:46 54.05240 -2.84479 32506 ft 455 kts 161°
2026-05-09 18:46 54.02319 -2.82363 32804 ft 454 kts 161°
2026-05-09 18:46 53.99411 -2.80260 33077 ft 453 kts 161°
2026-05-09 18:47 53.96529 -2.78188 33336 ft 453 kts 160°
2026-05-09 18:47 53.93603 -2.76092 33588 ft 453 kts 160°
2026-05-09 18:47 53.90712 -2.74024 33833 ft 453 kts 160°
2026-05-09 18:47 53.87793 -2.71919 34127 ft 453 kts 160°
2026-05-09 18:48 53.84893 -2.69817 34371 ft 452 kts 160°
2026-05-09 18:48 53.82028 -2.67741 34537 ft 453 kts 160°
2026-05-09 18:48 53.79099 -2.65626 34716 ft 453 kts 160°
2026-05-09 18:48 53.76214 -2.63549 34915 ft 453 kts 160°
2026-05-09 18:49 53.73303 -2.61464 35108 ft 453 kts 160°
2026-05-09 18:49 53.70391 -2.59385 35298 ft 453 kts 160°
2026-05-09 18:49 53.67494 -2.57318 35468 ft 453 kts 160°
2026-05-09 18:49 53.64597 -2.55253 35648 ft 453 kts 160°
2026-05-09 18:50 53.61701 -2.53191 35816 ft 453 kts 160°
2026-05-09 18:50 53.58791 -2.51118 36002 ft 453 kts 160°
2026-05-09 18:50 53.55864 -2.49031 36173 ft 453 kts 160°
2026-05-09 18:50 53.53935 -2.47657 36279 ft 454 kts 160°
2026-05-09 18:51 53.51021 -2.45584 36446 ft 453 kts 160°
2026-05-09 18:51 53.47169 -2.42851 36685 ft 453 kts 160°
2026-05-09 18:51 53.45240 -2.41485 36774 ft 453 kts 160°
2026-05-09 18:51 53.41361 -2.38750 36984 ft 453 kts 160°
2026-05-09 18:52 53.39396 -2.37366 37088 ft 453 kts 160°
2026-05-09 18:52 53.33595 -2.33287 37213 ft 451 kts 160°
2026-05-09 18:53 53.27795 -2.29218 37227 ft 451 kts 160°
2026-05-09 18:53 53.22012 -2.25195 37213 ft 453 kts 160°
2026-05-09 18:54 53.16198 -2.21205 37216 ft 454 kts 160°
2026-05-09 18:54 53.10326 -2.17163 37193 ft 454 kts 160°
2026-05-09 18:55 53.04510 -2.13138 37191 ft 454 kts 160°
2026-05-09 18:55 52.98697 -2.09122 37177 ft 453 kts 160°
2026-05-09 18:56 52.92866 -2.05109 37173 ft 451 kts 160°
2026-05-09 18:56 52.87081 -2.01142 37170 ft 449 kts 160°
2026-05-09 18:57 52.81322 -1.97204 37164 ft 447 kts 160°
2026-05-09 18:57 52.75586 -1.93293 37159 ft 445 kts 161°
2026-05-09 18:58 52.69889 -1.89420 37155 ft 443 kts 161°
2026-05-09 18:58 52.64203 -1.85565 37146 ft 441 kts 161°
2026-05-09 18:59 52.58501 -1.81711 37128 ft 440 kts 161°
2026-05-09 18:59 52.52852 -1.77902 37133 ft 440 kts 161°
2026-05-09 19:00 52.47197 -1.74101 37140 ft 439 kts 161°
2026-05-09 19:00 52.38728 -1.68425 37135 ft 440 kts 161°
2026-05-09 19:01 52.33077 -1.64511 37136 ft 442 kts 159°
2026-05-09 19:01 52.27476 -1.60158 37157 ft 444 kts 158°
2026-05-09 19:02 52.21936 -1.55782 37159 ft 445 kts 158°
2026-05-09 19:02 52.16351 -1.51424 37161 ft 446 kts 158°
2026-05-09 19:03 52.10725 -1.47081 37157 ft 446 kts 158°
2026-05-09 19:03 52.05126 -1.42782 37146 ft 446 kts 158°
2026-05-09 19:04 51.99511 -1.38484 37089 ft 445 kts 158°
2026-05-09 19:04 51.93920 -1.34215 37080 ft 444 kts 158°
2026-05-09 19:05 51.88343 -1.29968 37076 ft 443 kts 158°
2026-05-09 19:05 51.82742 -1.25714 37078 ft 442 kts 158°
2026-05-09 19:06 51.77188 -1.21508 37078 ft 441 kts 158°
2026-05-09 19:06 51.71613 -1.17297 37079 ft 440 kts 158°
2026-05-09 19:07 51.66068 -1.13120 37079 ft 440 kts 158°
2026-05-09 19:07 51.60530 -1.08960 37080 ft 439 kts 158°
2026-05-09 19:08 51.54995 -1.04814 37083 ft 439 kts 158°
2026-05-09 19:08 51.49454 -1.00674 37081 ft 440 kts 159°
2026-05-09 19:09 51.43917 -0.96549 37084 ft 440 kts 159°
2026-05-09 19:09 51.38330 -0.92397 37078 ft 441 kts 159°
2026-05-09 19:10 51.32773 -0.88279 37081 ft 442 kts 159°
2026-05-09 19:10 51.27207 -0.84165 37080 ft 442 kts 159°
2026-05-09 19:11 51.21830 -0.80201 37082 ft 443 kts 159°
2026-05-09 19:11 51.16250 -0.76098 37082 ft 443 kts 159°
2026-05-09 19:12 51.10648 -0.71989 37080 ft 443 kts 160°
2026-05-09 19:12 51.05040 -0.67888 37078 ft 443 kts 160°
2026-05-09 19:13 51.01314 -0.65169 37083 ft 443 kts 160°
2026-05-09 19:13 50.98031 -0.62776 37078 ft 443 kts 160°
2026-05-09 19:14 50.92436 -0.58709 37060 ft 442 kts 160°
2026-05-09 19:14 50.86836 -0.54648 37055 ft 441 kts 160°
2026-05-09 19:15 50.81262 -0.50617 37057 ft 440 kts 160°
2026-05-09 19:15 50.75699 -0.46604 37060 ft 439 kts 160°
2026-05-09 19:16 50.70147 -0.42611 37053 ft 438 kts 161°
2026-05-09 19:16 50.64618 -0.38644 37064 ft 437 kts 161°
2026-05-09 19:17 50.59065 -0.34671 37064 ft 436 kts 161°
2026-05-09 19:17 50.53568 -0.30748 37059 ft 435 kts 161°
2026-05-09 19:18 50.48073 -0.26836 37065 ft 434 kts 161°
2026-05-09 19:18 50.42575 -0.22932 37057 ft 433 kts 161°
2026-05-09 19:19 50.37083 -0.19043 37053 ft 433 kts 161°
2026-05-09 19:19 50.31585 -0.15158 37052 ft 432 kts 161°
2026-05-09 19:20 50.26102 -0.11294 37054 ft 432 kts 161°
2026-05-09 19:20 50.20626 -0.07445 37044 ft 432 kts 161°
2026-05-09 19:21 50.15107 -0.03573 37047 ft 432 kts 161°
2026-05-09 19:21 50.09623 0.00152 37035 ft 429 kts 166°
2026-05-09 19:22 50.03909 0.02515 37030 ft 424 kts 172°
2026-05-09 19:22 49.98144 0.04696 37032 ft 425 kts 171°
2026-05-09 19:23 49.92424 0.06902 37029 ft 425 kts 171°
2026-05-09 19:23 49.86689 0.09142 37012 ft 424 kts 171°
2026-05-09 19:24 49.80949 0.11383 37004 ft 424 kts 171°
2026-05-09 19:24 49.75221 0.13613 36990 ft 423 kts 171°
2026-05-09 19:25 49.69516 0.15828 36981 ft 423 kts 171°
2026-05-09 19:25 49.63807 0.18093 36976 ft 423 kts 170°
2026-05-09 19:26 49.58124 0.20411 36968 ft 423 kts 170°
2026-05-09 19:26 49.52442 0.22719 36974 ft 422 kts 170°
2026-05-09 19:27 49.46775 0.25006 36973 ft 422 kts 170°
2026-05-09 19:27 49.41086 0.27295 36968 ft 421 kts 170°
2026-05-09 19:28 49.35417 0.29570 36971 ft 421 kts 170°
2026-05-09 19:28 49.29761 0.31843 36970 ft 420 kts 169°
2026-05-09 19:29 49.24123 0.34207 36964 ft 420 kts 169°
2026-05-09 19:29 49.19402 0.36207 36976 ft 419 kts 169°
2026-05-09 19:30 49.13754 0.38586 36968 ft 420 kts 169°
2026-05-09 19:30 49.08122 0.40943 36973 ft 421 kts 169°
2026-05-09 19:31 49.02436 0.43317 36963 ft 422 kts 169°
2026-05-09 19:31 48.96773 0.45674 36962 ft 422 kts 169°
2026-05-09 19:32 48.91126 0.48021 36969 ft 421 kts 169°
2026-05-09 19:32 48.85445 0.50376 36965 ft 420 kts 169°
2026-05-09 19:33 48.79809 0.52707 36965 ft 419 kts 169°
2026-05-09 19:33 48.74203 0.54948 36964 ft 417 kts 169°
2026-05-09 19:34 48.68601 0.57120 36957 ft 416 kts 169°
2026-05-09 19:34 48.62976 0.59306 36957 ft 415 kts 169°
2026-05-09 19:35 48.57375 0.61488 36955 ft 414 kts 169°
2026-05-09 19:35 48.51796 0.63657 36950 ft 413 kts 169°
2026-05-09 19:36 48.46248 0.65897 36952 ft 413 kts 169°
2026-05-09 19:36 48.40712 0.68161 36946 ft 413 kts 169°
2026-05-09 19:37 48.35188 0.70405 36943 ft 413 kts 169°
2026-05-09 19:37 48.29632 0.72652 36937 ft 414 kts 169°
2026-05-09 19:38 48.24080 0.74887 36940 ft 414 kts 169°
2026-05-09 19:38 48.18484 0.77096 36935 ft 415 kts 169°
2026-05-09 19:39 48.12924 0.79277 36930 ft 416 kts 169°
2026-05-09 19:39 48.07289 0.81487 36933 ft 416 kts 169°
2026-05-09 19:40 48.01683 0.83684 36926 ft 417 kts 169°
2026-05-09 19:40 47.96093 0.85870 36927 ft 418 kts 169°
2026-05-09 19:41 47.90432 0.88079 36925 ft 418 kts 169°
2026-05-09 19:41 47.84796 0.90273 36926 ft 418 kts 169°
2026-05-09 19:42 47.79180 0.92451 36929 ft 419 kts 169°
2026-05-09 19:42 47.73539 0.94631 36921 ft 418 kts 169°
2026-05-09 19:43 47.67909 0.96804 36926 ft 418 kts 169°
2026-05-09 19:43 47.62296 0.98965 36921 ft 417 kts 169°
2026-05-09 19:44 47.56646 1.01137 36924 ft 417 kts 169°
2026-05-09 19:44 47.51038 1.03287 36920 ft 416 kts 169°
2026-05-09 19:45 47.45427 1.05434 36921 ft 416 kts 169°
2026-05-09 19:45 47.39762 1.06450 36922 ft 409 kts 184°
2026-05-09 19:46 47.34045 1.06257 36920 ft 409 kts 184°
2026-05-09 19:46 47.28365 1.06083 36921 ft 409 kts 183°
2026-05-09 19:47 47.22670 1.05945 36922 ft 410 kts 183°
2026-05-09 19:47 47.16941 1.05818 36922 ft 410 kts 183°
2026-05-09 19:48 47.11243 1.05692 36926 ft 410 kts 183°
2026-05-09 19:48 47.05520 1.05565 36921 ft 411 kts 183°
2026-05-09 19:49 46.99806 1.05410 36921 ft 411 kts 184°
2026-05-09 19:49 46.94096 1.05155 36912 ft 411 kts 184°
2026-05-09 19:50 46.88391 1.04890 36913 ft 411 kts 184°
2026-05-09 19:50 46.82647 1.04635 36910 ft 410 kts 184°
2026-05-09 19:51 46.76950 1.04389 36910 ft 410 kts 184°
2026-05-09 19:51 46.71281 1.04145 36915 ft 409 kts 184°
2026-05-09 19:52 46.65567 1.03899 36916 ft 409 kts 184°
2026-05-09 19:52 46.59898 1.03656 36914 ft 408 kts 184°
2026-05-09 19:53 46.54216 1.03412 36914 ft 407 kts 184°
2026-05-09 19:53 46.48583 1.03221 36920 ft 406 kts 182°
2026-05-09 19:54 46.42946 1.03177 36922 ft 405 kts 182°
2026-05-09 19:54 46.37305 1.03145 36924 ft 404 kts 182°
2026-05-09 19:55 46.31665 1.03098 36928 ft 404 kts 182°
2026-05-09 19:56 46.23269 1.03016 36939 ft 403 kts 182°
2026-05-09 19:56 46.17649 1.02959 36936 ft 403 kts 182°
2026-05-09 19:57 46.12040 1.02902 36944 ft 403 kts 182°
2026-05-09 19:57 46.06429 1.02847 36948 ft 403 kts 182°
2026-05-09 19:58 46.00814 1.02791 36952 ft 403 kts 182°
2026-05-09 19:58 45.95199 1.02735 36942 ft 404 kts 182°
2026-05-09 19:59 45.89600 1.02679 36945 ft 404 kts 182°
2026-05-09 19:59 45.83948 1.02623 36947 ft 404 kts 182°
2026-05-09 20:00 45.78347 1.03338 36955 ft 407 kts 172°
2026-05-09 20:00 45.72770 1.04819 36947 ft 407 kts 172°
2026-05-09 20:01 45.67212 1.06279 36946 ft 406 kts 172°
2026-05-09 20:01 45.61622 1.07718 36957 ft 406 kts 172°
2026-05-09 20:02 45.56056 1.09139 36945 ft 406 kts 173°
2026-05-09 20:02 45.50505 1.10551 36953 ft 406 kts 173°
2026-05-09 20:03 45.42200 1.12660 36943 ft 405 kts 173°
2026-05-09 20:03 45.36650 1.14066 36939 ft 405 kts 173°
2026-05-09 20:04 45.31088 1.15472 36939 ft 405 kts 173°
2026-05-09 20:04 45.25557 1.16869 36936 ft 404 kts 172°
2026-05-09 20:05 45.20018 1.18264 36928 ft 404 kts 173°
2026-05-09 20:05 45.14459 1.18842 36930 ft 401 kts 185°